Location: Boiro
(42.6475°N, 8.8834°W)
Time: 08:15:27
(UTC+01:00)

SR - Pass Details

Date: 30 November 2021
Orbit: 583 x 872 km, 66.7° (Epoch: 16 January)

Event Time Altitude Azimuth Distance (km) Brightness Sun altitude
Rises 09:08:33 0° 343° (NNW) 2,815 ? 2.9°
Reaches altitude 10° 09:11:46 10° 9° (N) 1,925 ? 3.4°
Maximum altitude 09:14:05 14° 42° (NE) 1,684 ? 3.7°
Drops below altitude 10° 09:16:27 10° 75° (ENE) 1,964 ? 4.1°
Sets 09:19:46 0° 101° (E) 2,913 ? 4.6°
